Weather History for KNLC - November, 2012

Change the Weather History Date:

Sunday, November 4, 2012

  Actual Average Record
Temperature  
Mean Temperature 60 °F -  
Max Temperature 78 °F 67 °F 82 °F (1997)
Min Temperature 44 °F 43 °F 33 °F (2003)
Degree Days  
Heating Degree Days 4    
Growing Degree Days 10 (Base 50)    
Moisture  
Dew Point 44 °F    
Average Humidity 59    
Maximum Humidity 82    
Minimum Humidity 37    
Precipitation  
Precipitation 0.00 in - - ()
Sea Level Pressure  
Sea Level Pressure 30.18 in    
Wind  
Wind Speed 4 mph (WNW)    
Max Wind Speed 8 mph    
Max Gust Speed -    
Visibility 10 miles    
Events      
Averages and records for this station are not official NWS values.
T = Trace of Precipitation, MM = Missing Value Source: NWS Daily Summary

Daily Weather History Graph

Daily Weather History Graph

Search for Another Location

Airport or City:

Trip Planner

Search our weather history database for the weather conditions in past years. The results will help you decide how hot, cold, wet, or windy it might be!

Date:

Astronomy

Nov. 04, 2012 Rise Set
Actual Time 6:26 AM PST 4:59 PM PST
Civil Twilight 5:59 AM PST 5:26 PM PST
Nautical Twilight 5:28 AM PST 5:57 PM PST
Astronomical Twilight 4:58 AM PST 6:27 PM PST
Moon 9:44 PM PST 11:11 AM PST
Length of Visible Light 11h 27m
Length of Day
10h 33m
Waning Gibbous, 71% of the Moon is Illuminated
Nov 4
Waning Gibbous
Nov 6
Last Quarter
Nov 13
New
Nov 20
First Quarter
Nov 28
Full

Hourly Weather History & Observations

Time (PST) Temp. Windchill Dew Point Humidity Pressure Visibility Wind Dir Wind Speed Gust Speed Precip Events Conditions
12:56 AM 50.0 °F - 41.0 °F 71% 30.17 in 10.0 mi West 6.9 mph - N/A   Clear
1:56 AM 48.9 °F - 39.9 °F 71% 30.17 in 10.0 mi West 4.6 mph - N/A   Clear
1:56 AM 46.9 °F - 37.9 °F 71% 30.18 in - SW 4.6 mph - N/A   Clear
2:56 AM 46.0 °F 41.9 °F 39.0 °F 76% 30.17 in - West 8.1 mph - N/A   Clear
3:56 AM 46.9 °F - 39.9 °F 77% 30.17 in - West 4.6 mph - N/A   Clear
4:56 AM 44.1 °F - 39.0 °F 82% 30.19 in - Calm Calm - N/A   Clear
5:56 AM 45.0 °F - 39.0 °F 80% 30.19 in - Calm Calm - N/A   Clear
6:56 AM 45.0 °F 43.5 °F 37.9 °F 76% 30.22 in - WSW 3.5 mph - N/A   Clear
7:56 AM 55.0 °F - 45.0 °F 69% 30.23 in - Calm Calm - N/A   Clear
8:56 AM 61.0 °F - 46.0 °F 58% 30.24 in - Calm Calm - N/A   Clear
9:56 AM 66.0 °F - 48.0 °F 52% 30.23 in - Calm Calm - N/A   Clear
10:56 AM 71.1 °F - 48.9 °F 45% 30.22 in - Calm Calm - N/A   Clear
11:56 AM 73.0 °F - 48.9 °F 42% 30.19 in 10.0 mi North 4.6 mph - N/A   Partly Cloudy
12:56 PM 73.0 °F - 48.9 °F 42% 30.17 in 10.0 mi Calm Calm - N/A   Partly Cloudy
1:56 PM 77.0 °F - 48.9 °F 37% 30.15 in 10.0 mi North 6.9 mph - N/A   Partly Cloudy
2:56 PM 77.0 °F - 50.0 °F 39% 30.15 in 10.0 mi NNW 4.6 mph - N/A   Partly Cloudy
3:56 PM 75.9 °F - 50.0 °F 40% 30.14 in 10.0 mi North 5.8 mph - N/A   Partly Cloudy
4:56 PM 73.0 °F - 48.9 °F 42% 30.14 in 10.0 mi NE 3.5 mph - N/A   Partly Cloudy
5:56 PM 64.9 °F - 46.9 °F 52% 30.15 in 10.0 mi ENE 3.5 mph - N/A   Clear
6:56 PM 63.0 °F - 48.0 °F 58% 30.17 in 10.0 mi Calm Calm - N/A   Clear
7:56 PM 57.9 °F - 43.0 °F 58% 30.17 in 10.0 mi Calm Calm - N/A   Clear
8:56 PM 54.0 °F - 42.1 °F 64% 30.19 in 10.0 mi WSW 8.1 mph - N/A   Clear
9:56 PM 52.0 °F - 39.0 °F 61% 30.19 in - SW 8.1 mph - N/A   Clear
10:56 PM 53.1 °F - 41.0 °F 64% 30.18 in - Calm Calm - N/A   Clear